Left ArrowRight Arrow

Hourly Observations for May 28, 2024

Temp ( °F °C ) Dew Point ( °F °C ) Humidity (%) Winds ( mph kmh ) Pressure ( in mb ) Visibility ( mi km ) Precip ( " mm )
12:53 am 00:53 Mostly Clear 60 15.6 53 11.7 78 78 SW 5 7 29.84 1011 10 16 0.00 0.00
1:53 am 01:53 Mostly Clear 59 15 52 11.1 77 77 W 8 13 29.85 1011 10 16 0.00 0.00
2:53 am 02:53 Partly Cloudy 58 14.4 53 11.7 84 84 WNW 6 9 29.85 1011 10 16 0.00 0.00
3:53 am 03:53 Partly Cloudy 57 13.9 52 11.1 83 83 WNW 5 7 29.86 1011 10 16 0.00 0.00
4:53 am 04:53 Mostly Cloudy 57 13.9 53 11.7 87 87 W 5 7 29.89 1012 10 16 0.00 0.00
5:53 am 05:53 Mostly Sunny 57 13.9 53 11.7 87 87 W 3 6 29.91 1013 10 16 0.00 0.00
6:53 am 06:53 Mostly Sunny 59 15 53 11.7 81 81 WNW 12 19 29.93 1014 10 16 0.00 0.00
7:53 am 07:53 Mostly Sunny 63 17.2 52 11.1 67 67 W 6 9 29.93 1014 10 16 0.00 0.00
8:53 am 08:53 Mostly Sunny 65 18.3 53 11.7 65 65 W 7 11 29.94 1014 10 16 0.00 0.00
9:53 am 09:53 Mostly Sunny 68 20 51 10.6 55 55 W 5 7 29.93 1014 10 16 0.00 0.00
10:53 am 10:53 Mostly Sunny 70 21.1 51 10.6 51 51 WNW 3 6 29.92 1013 10 16 0.00 0.00
11:53 am 11:53 Partly Cloudy 71 21.7 50 10 47 47 W 5 7 29.93 1013 10 16 0.00 0.00
12:53 pm 12:53 Mostly Cloudy 71 21.7 50 10 47 47 W 6 9 29.93 1014 10 16 0.00 0.00
1:53 pm 13:53 Mostly Cloudy 72 22.2 51 10.6 48 48 W 6 9 29.94 1014 10 16 0.00 0.00
2:53 pm 14:53 Mostly Cloudy with Thunderstorms 71 21.7 51 10.6 49 49 W 10 17 29.92 1013 10 16 0.01 0.13
3:53 pm 15:53 Mostly Cloudy with Thunderstorms 66 18.9 50 10 56 56 VRB 3 6 29.93 1014 10 16 0.01 0.13
4:53 pm 16:53 Cloudy with Thunderstorms 66 18.9 55 12.8 68 68 NNW 9 15 29.93 1014 10 16 0.01 0.13
5:53 pm 17:53 Cloudy with Thunderstorms 63 17.2 55 12.8 75 75 NW 15 24 29.96 1015 10 16 0.03 0.76
6:16 pm 18:16 Mostly Cloudy with Light Rain 61 16.1 55 12.8 81 81 WNW 12 19 29.96 1015 10 16 0.01 0.25
6:53 pm 18:53 Mostly Cloudy 62 16.7 54 12.2 75 75 NW 9 15 29.98 1015 10 16 0.01 0.25
7:53 pm 19:53 Partly Cloudy 61 16.1 53 11.7 75 75 NW 8 13 29.98 1015 10 16 0.00 0.00
8:53 pm 20:53 Mostly Clear 59 15 53 11.7 81 81 NW 8 13 29.98 1015 10 16 0.00 0.00
9:45 pm 21:45 Mostly Cloudy 60 15.6 52 11.1 75 75 NW 9 15 30.01 1016 10 16 0.00 0.00
9:53 pm 21:53 Mostly Cloudy 60 15.6 52 11.1 75 75 NW 12 19 29.99 1016 10 16 0.00 0.00
10:53 pm 22:53 Cloudy with Light Rain 57 13.9 53 11.7 87 87 N 12 19 30.01 1016 4 6 0.06 1.52
11:24 pm 23:24 Cloudy with Light Rain 57 13.9 53 11.7 87 87 N 9 15 30.03 1017 4 6 0.01 0.25
11:53 pm 23:53 Cloudy 56 13.3 51 10.6 84 84 N 13 20 30.02 1017 10 16 0.01 0.25

Powered by Vaisala Xweather